RH
31 29 26 22 20 18 16 14 12 11 10 8 7 7 5 3 3 4 11 18 16 17 19 19 20 21 22 35 25 24 61 63 39 33 34 25 30 29 30 30 35 35 40 40 40
36 33 30 28 24 20 17 15 13 11 10 8 7 7 5 3 3 4 18 16 15 16 18 19 19 18 20 26 23 40 39 25 20 23 27 27 29 34 27 24 32 36 39 39 39
40 37 34 31 27 22 19 16 14 11 9 8 7 7 5 5 4 10 17 18 15 18 19 19 18 17 20 21 22 33 28 20 35 23 20 25 32 34 25 32 34 38 38 38 38
42 39 36 32 28 24 20 17 14 10 8 7 7 7 6 6 21 13 14 16 17 19 19 18 16 17 24 25 24 30 26 20 32 22 30 24 24 24 24 26 33 34 35 37 38
42 40 37 32 28 24 20 16 13 8 7 6 6 6 6 14 10 13 12 13 17 18 17 17 15 18 27 29 28 30 29 26 27 25 21 22 25 25 25 26 30 32 33 34 35
39 39 36 32 28 22 19 16 9 8 7 6 6 6 7 22 11 12 10 10 17 18 16 15 15 20 28 30 35 35 26 28 30 21 23 24 29 24 25 26 28 30 31 32 32
36 36 36 32 27 21 17 13 9 8 6 6 6 6 8 8 13 12 10 10 17 16 15 14 14 16 17 43 26 34 37 34 30 29 27 24 31 33 24 25 27 28 30 32 32
34 32 34 32 26 20 17 10 11 8 6 6 6 6 6 9 11 12 10 12 15 15 13 14 14 20 22 26 35 37 45 65 36 34 30 36 44 31 24 26 28 29 32 31 31
33 29 30 31 25 18 12 11 14 8 7 6 8 10 21 12 10 10 8 10 11 11 12 14 13 20 24 29 40 42 54 53 45 36 40 66 70 32 26 28 30 29 31 32 33
31 28 27 28 24 17 12 15 16 8 8 7 21 28 11 11 9 9 8 9 9 11 12 12 17 29 30 42 56 50 61 56 58 34 68 62 65 34 36 29 31 32 30 34 35
31 26 24 26 21 15 19 22 28 19 18 14 10 11 10 9 8 7 8 8 8 10 15 12 25 31 33 32 32 36 47 50 49 37 43 40 58 57 55 56 32 33 32 35 36
32 26 23 24 17 15 23 25 19 18 19 16 7 12 8 8 7 7 7 8 8 11 12 16 23 21 20 19 30 28 39 42 29 32 25 35 54 59 69 54 34 33 34 35 42
33 27 22 22 15 29 25 20 17 17 18 13 12 10 7 7 8 8 7 7 9 11 11 18 21 20 18 23 27 26 30 24 24 21 28 29 45 46 44 33 35 30 34 34 39
34 29 23 20 28 30 25 18 17 17 26 15 12 9 5 5 7 8 6 7 7 11 11 14 17 17 17 17 25 46 25 21 23 28 37 29 58 65 58 48 37 36 35 34 39
34 30 24 24 26 24 26 24 18 18 33 8 8 6 5 6 6 8 6 6 8 11 12 14 18 18 19 15 22 28 30 24 24 27 30 49 74 79 52 51 45 36 33 34 37
32 31 26 23 23 22 27 22 19 26 29 9 6 5 5 5 6 6 6 6 7 10 11 12 10 15 16 9 9 12 13 30 38 37 43 40 58 74 69 46 46 32 25 31 36
29 30 27 21 20 33 27 24 30 30 7 7 8 5 6 7 6 8 9 9 12 13 17 14 12 12 11 12 10 13 16 42 54 69 55 40 40 48 42 39 38 35 21 28 36
26 28 23 20 23 28 32 32 36 14 11 6 7 7 7 6 7 8 10 11 9 11 15 19 19 13 13 13 14 14 15 37 53 55 41 38 43 39 28 25 24 17 20 29 36
26 26 21 19 27 26 34 36 27 17 6 7 7 8 8 6 6 7 10 10 9 10 14 15 17 10 10 11 14 15 19 13 26 36 50 37 28 21 26 34 34 20 20 24 36
30 26 18 19 38 28 36 33 18 10 9 8 9 7 8 7 7 8 11 9 8 7 8 10 14 12 11 10 11 11 12 18 23 48 48 43 44 39 33 49 52 28 22 26 30
34 47 29 31 36 30 37 24 13 10 10 10 10 9 8 7 7 8 9 7 7 7 8 8 11 13 9 12 12 12 13 12 24 45 56 53 67 37 30 34 34 26 23 28 34
44 46 29 30 32 28 28 19 11 10 9 8 9 10 11 9 8 9 9 8 5 6 8 9 9 15 12 7 7 7 9 11 26 21 34 34 36 20 18 18 17 23 25 26 30
60 38 28 30 39 30 21 15 13 11 10 8 9 8 8 12 11 9 8 6 5 8 13 8 13 17 16 11 7 8 8 6 9 14 18 21 29 16 15 15 16 20 28 31 31
67 46 29 30 28 26 21 16 14 10 9 7 9 8 8 12 12 11 8 6 6 8 5 7 10 14 18 16 10 11 9 8 8 13 15 17 19 15 17 22 14 37 32 30 37
63 40 42 50 33 29 22 19 17 12 7 7 12 10 10 13 15 10 9 9 8 7 6 8 11 13 12 9 7 8 8 8 10 9 11 13 15 17 22 25 14 15 31 29 39
67 52 52 52 43 43 32 21 19 16 11 10 12 9 10 16 15 15 11 15 13 10 9 9 14 14 15 10 10 10 9 8 7 7 9 7 9 14 17 14 16 14 26 37 37
70 60 60 52 46 40 26 18 17 13 10 9 7 11 12 13 8 8 8 10 12 16 14 13 13 17 19 16 13 14 10 9 7 7 8 12 21 14 17 18 19 17 14 26 32
Wind_Speed
14 14 14 14 15 14 15 15 15 15 15 13 12 11 12 12 11 13 14 8 7 8 11 13 13 20 12 15 10 4 5 6 4 14 4 16 8 8 8 22 26 14 30 28 24
14 15 15 15 15 15 15 16 16 16 15 13 12 11 11 11 11 16 13 10 11 9 12 11 19 18 8 25 10 4 2 10 13 12 8 15 19 10 9 13 24 29 32 27 24
15 15 15 15 15 15 16 16 16 16 15 12 11 10 9 9 8 18 15 11 9 10 12 13 14 18 15 1 3 6 5 10 24 22 7 16 19 15 13 15 29 32 30 27 23
16 16 16 15 15 15 16 16 16 16 13 11 10 9 8 5 2 4 13 11 9 10 12 12 14 5 3 5 3 3 21 10 22 19 5 12 21 15 18 22 31 30 28 27 23
17 17 16 16 16 15 16 16 17 14 12 10 8 8 6 5 9 1 12 11 11 11 13 11 17 5 14 14 19 8 11 17 12 23 6 17 16 16 20 28 29 27 27 25 24
18 18 17 16 16 16 16 16 14 12 10 7 8 7 5 5 8 5 9 14 13 12 13 14 14 28 19 17 9 15 17 17 15 11 6 5 6 15 23 27 28 27 26 23 24
19 19 18 17 17 16 15 16 12 9 8 6 7 7 9 18 2 5 6 15 12 11 13 19 23 6 13 7 18 10 7 10 5 5 3 3 5 6 27 27 28 26 24 19 15
20 19 19 18 17 16 15 12 9 6 5 4 6 5 9 11 3 11 6 12 12 11 10 15 22 24 13 13 4 3 5 5 8 14 9 18 4 2 27 26 25 25 27 21 16
20 20 19 18 17 16 13 9 5 3 2 3 1 3 10 6 12 10 12 12 11 10 12 17 13 16 19 2 2 5 3 13 18 11 12 10 22 12 24 23 20 23 27 24 23
21 20 19 17 16 16 8 5 2 1 2 4 4 6 12 14 14 15 13 15 17 13 15 18 4 4 4 4 5 5 7 5 14 23 15 19 20 6 7 22 22 21 20 27 27
21 21 20 16 14 13 5 5 5 2 9 12 9 12 2 8 11 13 15 13 15 16 7 20 4 8 19 15 7 9 14 17 20 19 16 12 19 13 27 31 23 28 26 27 27
22 21 20 15 10 5 10 6 8 7 9 18 24 22 27 7 8 10 17 17 16 8 9 7 4 9 18 8 6 10 16 17 15 21 9 16 15 13 20 15 8 29 31 26 29
22 21 21 13 3 3 8 8 9 11 5 12 24 23 20 4 9 18 16 18 8 9 9 10 13 19 14 11 10 8 11 5 6 5 3 6 5 7 10 14 9 19 37 31 35
22 21 20 13 3 6 6 4 10 5 3 7 14 11 18 11 8 19 21 20 9 12 12 9 9 10 17 12 20 6 20 15 11 5 2 4 2 6 11 23 16 22 30 36 35
21 20 17 18 15 10 8 8 10 7 2 11 13 9 15 17 4 14 23 22 13 13 7 15 10 11 11 6 24 14 13 14 16 7 4 3 6 9 12 16 19 22 16 36 37
21 19 20 14 15 5 9 10 10 1 6 6 12 11 9 22 16 12 17 21 18 10 13 11 11 4 8 3 4 7 5 10 7 8 4 5 7 6 7 13 8 16 26 32 37
22 19 20 18 8 4 4 8 1 4 4 10 8 11 11 10 8 10 9 8 7 3 7 11 10 12 3 3 5 3 2 5 6 4 5 6 4 8 18 20 20 21 8 32 38
23 21 17 16 9 6 4 3 5 10 9 9 10 11 10 10 10 10 9 7 11 10 5 6 7 8 6 7 6 4 2 5 7 3 2 4 4 6 15 19 20 17 15 31 35
24 21 20 7 5 10 5 4 7 7 4 4 16 11 10 9 8 7 9 9 10 10 7 2 6 7 8 6 9 5 3 5 10 7 5 4 6 2 4 10 30 15 21 27 35
25 26 18 12 13 11 4 6 8 10 17 14 8 10 9 10 10 8 10 10 9 11 12 10 6 8 13 8 5 5 2 6 4 5 3 4 5 7 1 14 28 14 22 24 34
18 11 2 17 18 13 6 7 7 24 24 8 8 3 10 10 11 9 10 9 13 13 10 7 3 11 5 3 3 5 2 3 6 6 6 4 6 9 14 22 19 17 29 34 34
7 4 12 17 8 7 9 6 7 22 33 12 6 7 8 5 10 10 9 9 21 16 6 9 1 3 7 6 8 4 6 3 5 5 5 6 2 10 16 15 26 22 31 35 33
5 12 10 16 5 8 11 17 22 20 20 5 5 6 13 10 6 8 8 7 14 6 2 3 1 3 10 7 2 5 3 2 3 3 3 3 3 5 2 8 16 20 29 26 33
5 3 12 17 17 13 12 14 16 25 20 20 6 9 11 11 9 7 7 5 20 8 11 7 2 4 7 6 3 6 7 6 5 2 4 1 4 4 2 10 10 29 40 34 30
4 6 10 4 9 11 15 14 17 18 10 12 9 12 9 8 8 3 7 9 8 6 4 4 2 7 10 8 7 0 6 5 6 6 4 6 5 6 5 10 15 25 34 27 39
6 7 13 20 18 15 11 17 18 20 9 7 8 16 11 7 8 6 7 7 6 4 3 2 3 3 8 8 8 6 9 9 4 4 4 3 6 8 23 21 16 13 25 30 39
8 9 10 11 9 10 9 15 17 14 14 20 13 10 8 11 15 20 17 17 14 10 7 4 4 1 6 7 6 4 7 7 2 3 4 2 5 1 5 5 10 12 8 23 38
Wind_Direction
339 338 337 335 331 330 327 324 321 319 318 320 316 313 305 287 263 252 242 218 287 282 287 307 311 320 297 35 304 61 95 187 196 91 153 101 89 95 129 133 145 158 145 145 135
340 338 336 335 332 329 327 322 321 317 316 316 310 308 303 295 273 246 212 217 245 265 281 301 306 21 108 170 284 86 350 87 97 127 119 123 132 156 125 135 124 131 138 145 143
340 338 336 334 332 330 325 321 319 315 313 309 303 304 300 303 288 240 219 220 233 253 270 292 308 340 71 357 286 15 12 86 58 357 111 137 149 153 137 118 126 131 139 152 150
342 339 336 334 331 329 324 320 317 314 309 302 298 297 294 288 196 252 222 229 229 243 262 285 307 276 119 199 199 325 359 37 123 170 260 153 117 94 130 135 137 138 147 151 165
344 341 338 333 329 327 323 318 317 312 305 297 291 287 295 270 256 306 210 219 222 241 259 275 287 122 82 26 330 50 357 0 81 177 114 97 104 112 110 127 135 141 156 164 172
347 344 339 333 328 326 322 319 315 308 299 289 279 274 270 261 218 276 255 227 213 239 263 269 272 99 75 33 50 318 297 55 315 87 26 79 87 128 127 136 140 153 165 178 182
347 346 341 333 328 325 321 319 313 303 293 278 266 261 256 220 353 251 262 212 209 227 268 291 293 95 75 174 268 310 332 356 230 247 323 284 48 117 145 146 150 164 169 183 185
345 346 341 334 328 324 321 314 308 298 285 261 247 257 257 207 228 238 269 209 210 244 258 287 307 119 120 133 66 8 22 5 327 320 332 346 282 204 153 154 164 172 165 172 173
344 344 340 335 327 323 323 314 302 294 273 232 222 288 272 206 202 204 221 216 232 243 271 280 302 98 97 138 56 7 312 17 334 324 336 40 302 274 169 163 181 174 172 174 168
341 341 340 335 328 324 329 312 290 228 241 222 203 291 238 224 225 214 208 208 216 235 249 257 61 78 355 97 181 163 94 101 280 283 171 205 244 233 23 171 184 178 172 168 166
340 340 339 334 326 324 9 328 341 246 229 218 192 219 299 187 194 199 194 214 233 234 225 250 109 134 236 242 174 162 146 168 237 257 203 214 113 84 290 292 187 177 175 170 175
339 339 338 333 323 315 351 358 22 342 293 271 254 259 265 229 180 197 205 199 225 236 226 272 173 228 206 235 152 223 194 211 228 245 130 109 130 184 195 266 222 181 176 177 172
337 338 339 335 335 341 336 325 339 345 276 279 236 243 237 262 231 200 215 212 219 238 236 217 177 201 212 213 137 237 244 277 230 101 41 146 64 183 225 320 278 190 179 178 176
334 336 341 341 310 308 14 359 332 334 301 255 190 235 222 217 252 239 186 206 231 232 238 235 190 216 262 200 152 63 265 253 53 79 81 21 240 322 352 325 316 310 179 181 181
329 331 331 330 310 306 348 4 337 313 279 186 176 223 196 201 215 227 183 200 225 236 184 250 183 205 246 165 151 219 228 88 63 43 116 16 69 300 332 293 289 286 262 183 181
321 326 317 319 309 324 326 338 318 287 241 144 159 184 173 212 252 186 167 206 240 257 275 259 233 167 217 93 268 96 98 50 31 47 6 153 134 237 229 242 274 274 270 185 174
314 316 305 298 275 335 312 328 215 235 249 148 164 167 188 198 240 168 170 192 219 238 292 299 286 170 111 173 261 175 178 58 325 23 241 189 83 234 222 232 233 261 207 167 167
311 313 294 278 268 220 330 319 246 245 256 164 156 174 202 184 230 182 171 191 233 244 252 230 302 233 178 165 195 333 61 158 182 181 265 124 221 251 228 231 294 157 132 152 161
314 312 291 251 183 208 260 226 215 230 271 190 161 169 200 207 185 231 179 196 217 220 226 286 259 335 293 204 154 204 245 241 91 43 91 282 298 316 231 9 335 161 138 149 157
321 321 283 193 212 175 221 252 248 308 323 322 142 153 183 213 197 200 181 209 225 210 215 261 309 245 253 175 165 138 203 17 356 158 202 330 357 269 127 156 217 229 156 146 149
324 318 358 161 178 196 224 242 298 281 291 333 0 293 190 189 208 220 206 226 201 237 200 229 206 291 7 120 124 8 359 226 117 135 155 145 270 246 231 192 199 204 152 147 152
317 277 158 157 183 222 239 253 280 287 296 289 341 320 291 244 188 205 199 216 213 203 221 202 64 297 258 160 134 191 235 223 132 255 206 163 197 252 246 146 194 174 154 157 162
308 282 254 203 220 233 249 251 259 269 277 278 278 288 311 303 203 163 226 42 144 85 29 22 53 339 328 346 168 180 214 301 352 65 285 96 216 276 357 45 59 149 147 149 162
309 281 238 230 229 258 251 245 244 262 264 269 301 276 294 303 315 183 166 78 80 100 64 33 348 173 216 237 271 159 200 202 154 64 283 351 222 318 41 113 95 108 133 165 201
244 258 351 296 227 235 256 278 278 249 228 275 302 286 264 285 308 241 131 110 99 92 63 93 271 298 294 293 325 310 223 187 181 212 151 244 151 219 174 151 163 159 175 189 183
281 345 324 293 285 280 254 251 264 275 217 215 238 274 262 273 236 292 132 138 150 115 141 263 250 291 298 317 335 349 341 335 282 337 229 126 296 179 162 165 180 179 146 170 177
323 297 324 291 292 281 243 242 254 264 204 233 225 257 264 268 281 283 305 155 156 145 173 204 181 215 276 308 312 330 274 269 195 313 309 18 339 37 146 94 80 101 122 177 190